| time (UTC) | temp C | wind direction | speed KPH | gust KPH | rain 1hr cm | rain 24hr cm | rain mn cm | humidity % | barometer mb |
| 20260906210346 | 21 | 46 | 0.0 | 0.0 | 0.00 | 0.28 | 0.28 | 69 | 1018.7 |
| 20260906205346 | 21 | 46 | 0.0 | 0.0 | 0.00 | 0.28 | 0.28 | 67 | 1018.7 |
| 20260906204346 | 21 | 46 | 0.0 | 0.0 | 0.00 | 0.28 | 0.28 | 69 | 1018.6 |
| 20260906203344 | 20 | 46 | 0.0 | 1.6 | 0.00 | 0.28 | 0.28 | 69 | 1018.6 |
| 20260906202344 | 20 | 46 | 0.0 | 1.6 | 0.00 | 0.28 | 0.28 | 70 | 1018.6 |
| 20260906201343 | 20 | 45 | 0.0 | 0.0 | 0.00 | 0.28 | 0.28 | 70 | 1018.6 |
| 20260906200832 | 20 | 45 | 0.0 | 0.0 | 0.00 | 0.28 | 0.28 | 70 | 1018.7 |
| 20260906195342 | 20 | 45 | 0.0 | 0.0 | 0.00 | 0.28 | 0.28 | 71 | 1018.7 |
| 20260906194342 | 20 | 45 | 0.0 | 0.0 | 0.00 | 0.28 | 0.28 | 73 | 1018.7 |
| 20260906193342 | 20 | 45 | 0.0 | 0.0 | 0.00 | 0.28 | 0.28 | 72 | 1018.9 |
| 20260906192342 | 20 | 45 | 0.0 | 0.0 | 0.00 | 0.28 | 0.28 | 72 | 1018.8 |
| 20260906191342 | 20 | 45 | 0.0 | 1.6 | 0.00 | 0.28 | 0.28 | 71 | 1018.9 |
| 20260906190336 | 20 | 45 | 0.0 | 1.6 | 0.00 | 0.28 | 0.28 | 72 | 1018.8 |
| 20260906185337 | 20 | 45 | 0.0 | 1.6 | 0.00 | 0.28 | 0.28 | 73 | 1018.8 |
| 20260906184336 | 20 | 47 | 0.0 | 1.6 | 0.00 | 0.28 | 0.28 | 73 | 1018.9 |
| 20260906183336 | 20 | 47 | 0.0 | 0.0 | 0.00 | 0.28 | 0.28 | 72 | 1018.9 |
| 20260906182334 | 19 | 47 | 0.0 | 6.4 | 0.00 | 0.28 | 0.28 | 74 | 1018.9 |
| 20260906181726 | 20 | 47 | 0.0 | 6.4 | 0.00 | 0.28 | 0.28 | 73 | 1018.9 |
| 20260906181503 | 20 | 47 | 0.0 | 1.6 | 0.00 | 0.28 | 0.28 | 73 | 1018.9 |
| 20260906175332 | 20 | 46 | 0.0 | 3.2 | 0.00 | 0.28 | 0.28 | 73 | 1018.9 |
| 20260906174329 | 19 | 45 | 0.0 | 1.6 | 0.00 | 0.28 | 0.28 | 76 | 1018.9 |
| 20260906173807 | 20 | 46 | 0.0 | 0.0 | 0.00 | 0.28 | 0.28 | 74 | 1018.9 |
| 20260906172811 | 20 | 46 | 0.0 | 1.6 | 0.00 | 0.28 | 0.28 | 78 | 1019.0 |
| 20260906171329 | 19 | 46 | 0.0 | 1.6 | 0.00 | 0.28 | 0.28 | 77 | 1019.1 |
| 20260906170330 | 19 | 46 | 0.0 | 1.6 | 0.00 | 0.28 | 0.28 | 78 | 1019.0 |
| 20260906165330 | 20 | 46 | 0.0 | 1.6 | 0.00 | 0.28 | 0.28 | 74 | 1018.9 |
| 20260906164329 | 20 | 46 | 0.0 | 6.4 | 0.00 | 0.28 | 0.28 | 76 | 1018.8 |
| 20260906163330 | 20 | 42 | 0.0 | 4.8 | 0.00 | 0.28 | 0.28 | 75 | 1018.8 |
| 20260906162330 | 19 | 49 | 0.0 | 6.4 | 0.00 | 0.28 | 0.28 | 78 | 1018.8 |
| 20260906161330 | 20 | 50 | 0.0 | 1.6 | 0.00 | 0.28 | 0.28 | 79 | 1018.8 |
| 20260906160329 | 20 | 49 | 0.0 | 1.6 | 0.00 | 0.28 | 0.28 | 79 | 1018.9 |
| 20260906155329 | 20 | 51 | 0.0 | 1.6 | 0.00 | 0.28 | 0.28 | 76 | 1018.9 |
| 20260906154330 | 20 | 50 | 0.0 | 0.0 | 0.00 | 0.28 | 0.28 | 73 | 1018.8 |
| 20260906153329 | 20 | 51 | 0.0 | 0.0 | 0.00 | 0.28 | 0.28 | 77 | 1018.7 |
| 20260906152329 | 19 | 50 | 0.0 | 3.2 | 0.28 | 0.28 | 0.28 | 77 | 1018.7 |
| 20260906151804 | 19 | 51 | 0.0 | 4.8 | 0.28 | 0.28 | 0.28 | 77 | 1018.6 |
| 20260906150328 | 20 | 49 | 0.0 | 1.6 | 0.28 | 0.28 | 0.28 | 77 | 1018.6 |
| 20260906145328 | 20 | 52 | 0.0 | 8.0 | 0.28 | 0.28 | 0.28 | 79 | 1018.6 |
| 20260906144328 | 19 | 34 | 0.0 | 3.2 | 0.28 | 0.28 | 0.28 | 80 | 1018.5 |
| 20260906143815 | 19 | 33 | 0.0 | 9.7 | 0.28 | 0.28 | 0.28 | 80 | 1018.6 |
| 20260906142807 | 19 | 24 | 0.0 | 6.4 | 0.00 | 0.00 | 0.00 | 78 | 1018.6 |
| 20260906141329 | 19 | 23 | 0.0 | 8.0 | 0.00 | 0.00 | 0.00 | 78 | 1018.3 |
| 20260906140821 | 19 | 13 | 0.0 | 3.2 | 0.00 | 0.00 | 0.00 | 81 | 1018.2 |
| 20260906135325 | 19 | 0 | 0.0 | 3.2 | 0.00 | 0.00 | 0.00 | 83 | 1018.0 |
| 20260906134323 | 18 | 28 | 0.0 | 3.2 | 0.00 | 0.00 | 0.00 | 84 | 1018.0 |
| 20260906133813 | 18 | 33 | 0.0 | 4.8 | 0.00 | 0.00 | 0.00 | 84 | 1018.0 |
| 20260906132319 | 18 | 32 | 0.0 | 1.6 | 0.00 | 0.00 | 0.00 | 85 | 1018.0 |
| 20260906132238 | 18 | 351 | 0.0 | 1.6 | 0.00 | 0.00 | 0.00 | 85 | 1017.9 |
| 20260906130809 | 18 | 351 | 0.0 | 9.7 | 0.00 | 0.00 | 0.00 | 86 | 1017.8 |
| 20260906125758 | 18 | 326 | 0.0 | 1.6 | 0.00 | 0.00 | 0.00 | 88 | 1017.7 |
| 20260906124319 | 18 | 326 | 0.0 | 0.0 | 0.00 | 0.00 | 0.00 | 89 | 1017.6 |
| 20260906123318 | 18 | 325 | 0.0 | 1.6 | 0.00 | 0.00 | 0.00 | 90 | 1017.6 |
| 20260906122317 | 18 | 30 | 0.0 | 4.8 | 0.00 | 0.00 | 0.00 | 90 | 1017.5 |
| 20260906121311 | 17 | 28 | 0.0 | 6.4 | 0.00 | 0.00 | 0.00 | 88 | 1017.5 |
| 20260906120311 | 17 | 302 | 0.0 | 1.6 | 0.00 | 0.00 | 0.00 | 87 | 1017.3 |
| 20260906115311 | 16 | 32 | 0.0 | 0.0 | 0.00 | 0.00 | 0.00 | 88 | 1017.2 |
| 20260906114311 | 15 | 0 | 0.0 | 0.0 | 0.00 | 0.00 | 0.00 | 89 | 1016.9 |
| 20260906113311 | 15 | 300 | 0.0 | 0.0 | 0.00 | 0.00 | 0.00 | 89 | 1016.8 |
| 20260906112310 | 15 | 301 | 0.0 | 0.0 | 0.00 | 0.00 | 0.00 | 90 | 1016.8 |
| 20260906111311 | 15 | 301 | 0.0 | 0.0 | 0.00 | 0.00 | 0.00 | 90 | 1016.7 |
| 20260906110309 | 15 | 297 | 0.0 | 0.0 | 0.00 | 0.00 | 0.00 | 90 | 1016.6 |
| 20260906105756 | 15 | 300 | 0.0 | 0.0 | 0.00 | 0.00 | 0.00 | 90 | 1016.5 |
| 20260906104748 | 15 | 300 | 0.0 | 0.0 | 0.00 | 0.00 | 0.00 | 90 | 1016.4 |
| 20260906103309 | 15 | 301 | 0.0 | 0.0 | 0.00 | 0.00 | 0.00 | 90 | 1016.3 |
| 20260906102308 | 15 | 301 | 0.0 | 0.0 | 0.00 | 0.00 | 0.00 | 90 | 1016.2 |
| 20260906101311 | 15 | 301 | 0.0 | 0.0 | 0.00 | 0.00 | 0.00 | 90 | 1016.1 |
| 20260906100304 | 15 | 301 | 0.0 | 0.0 | 0.00 | 0.00 | 0.00 | 90 | 1015.9 |
| 20260906095306 | 15 | 301 | 0.0 | 0.0 | 0.00 | 0.00 | 0.00 | 90 | 1015.9 |
| 20260906094742 | 15 | 301 | 0.0 | 0.0 | 0.00 | 0.00 | 0.00 | 90 | 1015.8 |
| 20260906093304 | 15 | 301 | 0.0 | 0.0 | 0.00 | 0.00 | 0.00 | 90 | 1015.7 |
| 20260906092753 | 15 | 301 | 0.0 | 0.0 | 0.00 | 0.00 | 0.00 | 90 | 1015.7 |
| 20260906091305 | 15 | 301 | 0.0 | 0.0 | 0.00 | 0.00 | 0.00 | 90 | 1015.5 |
| 20260906090305 | 15 | 301 | 0.0 | 0.0 | 0.00 | 0.00 | 0.00 | 90 | 1015.5 |
| 20260906085306 | 15 | 301 | 0.0 | 0.0 | 0.00 | 0.00 | 0.00 | 90 | 1015.3 |
| 20260906084739 | 15 | 301 | 0.0 | 0.0 | 0.00 | 0.00 | 0.00 | 90 | 1015.1 |
| 20260906083304 | 15 | 297 | 0.0 | 0.0 | 0.00 | 0.00 | 0.00 | 90 | 1015.1 |
| 20260906082306 | 15 | 300 | 0.0 | 0.0 | 0.00 | 0.00 | 0.00 | 91 | 1015.0 |
| 20260906081304 | 15 | 301 | 0.0 | 0.0 | 0.00 | 0.00 | 0.00 | 91 | 1014.9 |
| 20260906080304 | 15 | 301 | 0.0 | 0.0 | 0.00 | 0.00 | 0.00 | 90 | 1015.0 |
| 20260906075306 | 15 | 301 | 0.0 | 0.0 | 0.00 | 0.00 | 0.00 | 90 | 1015.0 |
| 20260906074304 | 16 | 0 | 0.0 | 0.0 | 0.00 | 0.00 | 0.00 | 91 | 1014.9 |
| 20260906073304 | 16 | 0 | 0.0 | 0.0 | 0.00 | 0.00 | 0.00 | 90 | 1014.9 |
| 20260906072306 | 16 | 0 | 0.0 | 0.0 | 0.00 | 0.00 | 0.00 | 90 | 1014.7 |
| 20260906071738 | 16 | 0 | 0.0 | 0.0 | 0.00 | 0.00 | 0.00 | 91 | 1014.8 |
| 20260906070752 | 16 | 0 | 0.0 | 0.0 | 0.00 | 0.00 | 0.00 | 90 | 1014.9 |
| 20260906065305 | 16 | 0 | 0.0 | 0.0 | 0.00 | 0.00 | 0.00 | 90 | 1014.8 |
| 20260906064304 | 16 | 0 | 0.0 | 0.0 | 0.00 | 0.00 | 0.00 | 90 | 1014.9 |
| 20260906063304 | 16 | 0 | 0.0 | 0.0 | 0.00 | 0.00 | 0.00 | 91 | 1015.0 |
| 20260906062306 | 16 | 0 | 0.0 | 0.0 | 0.00 | 0.00 | 0.00 | 91 | 1014.8 |
| 20260906061303 | 16 | 0 | 0.0 | 0.0 | 0.00 | 0.00 | 0.00 | 91 | 1014.9 |
| 20260906060304 | 16 | 0 | 0.0 | 0.0 | 0.00 | 0.00 | 0.00 | 90 | 1014.9 |
| 20260906060230 | 17 | 0 | 0.0 | 0.0 | 0.00 | 0.00 | 0.00 | 91 | 1014.9 |
| 20260906054304 | 17 | 0 | 0.0 | 0.0 | 0.00 | 0.00 | 0.00 | 90 | 1014.9 |
| 20260906053304 | 17 | 0 | 0.0 | 0.0 | 0.00 | 0.00 | 0.00 | 90 | 1015.0 |
| 20260906052739 | 17 | 0 | 0.0 | 0.0 | 0.00 | 0.00 | 0.00 | 90 | 1014.9 |
| 20260906051304 | 17 | 0 | 0.0 | 0.0 | 0.00 | 0.00 | 0.00 | 90 | 1014.8 |
| 20260906050304 | 17 | 0 | 0.0 | 0.0 | 0.00 | 0.00 | 0.00 | 90 | 1014.9 |
| 20260906045306 | 17 | 0 | 0.0 | 0.0 | 0.00 | 0.00 | 0.00 | 90 | 1014.9 |
| 20260906044303 | 17 | 0 | 0.0 | 0.0 | 0.00 | 0.00 | 0.00 | 90 | 1014.8 |
| 20260906043305 | 17 | 0 | 0.0 | 0.0 | 0.00 | 0.00 | 0.00 | 90 | 1014.7 |
| 20260906042306 | 17 | 0 | 0.0 | 0.0 | 0.00 | 0.00 | 0.00 | 90 | 1014.7 |
| 20260906041303 | 17 | 0 | 0.0 | 0.0 | 0.00 | 0.00 | 0.00 | 90 | 1014.7 |
| 20260906040302 | 17 | 0 | 0.0 | 0.0 | 0.00 | 0.00 | 0.00 | 90 | 1014.5 |
| 20260906035736 | 17 | 0 | 0.0 | 0.0 | 0.00 | 0.00 | 0.00 | 90 | 1014.6 |
| 20260906034255 | 17 | 0 | 0.0 | 0.0 | 0.00 | 0.00 | 0.00 | 90 | 1014.6 |
| 20260906033253 | 17 | 0 | 0.0 | 0.0 | 0.00 | 0.00 | 0.00 | 90 | 1014.5 |
| 20260906032724 | 17 | 0 | 0.0 | 0.0 | 0.00 | 0.00 | 0.00 | 90 | 1014.4 |
| 20260906031246 | 17 | 0 | 0.0 | 0.0 | 0.00 | 0.00 | 0.00 | 90 | 1014.5 |
| 20260906030245 | 17 | 0 | 0.0 | 0.0 | 0.00 | 0.00 | 0.00 | 90 | 1014.4 |
| 20260906030159 | 17 | 0 | 0.0 | 0.0 | 0.00 | 0.00 | 0.00 | 90 | 1014.4 |
| 20260906024240 | 17 | 0 | 0.0 | 0.0 | 0.00 | 0.00 | 0.00 | 90 | 1014.4 |
| 20260906023241 | 17 | 0 | 0.0 | 0.0 | 0.00 | 0.00 | 0.00 | 89 | 1014.3 |
| 20260906022723 | 18 | 0 | 0.0 | 0.0 | 0.00 | 0.00 | 0.00 | 89 | 1014.3 |
| 20260906022156 | 18 | 0 | 0.0 | 0.0 | 0.00 | 0.00 | 0.00 | 89 | 1014.2 |
| 20260906020236 | 18 | 0 | 0.0 | 0.0 | 0.00 | 0.00 | 0.00 | 88 | 1014.2 |
| 20260906015237 | 18 | 0 | 0.0 | 0.0 | 0.00 | 0.00 | 0.00 | 88 | 1014.2 |
| 20260906014237 | 18 | 0 | 0.0 | 0.0 | 0.00 | 0.00 | 0.00 | 87 | 1014.1 |
| 20260906013238 | 19 | 0 | 0.0 | 0.0 | 0.00 | 0.00 | 0.00 | 87 | 1014.1 |
| 20260906012234 | 19 | 0 | 0.0 | 0.0 | 0.00 | 0.00 | 0.00 | 86 | 1013.9 |
| 20260906011232 | 20 | 0 | 0.0 | 0.0 | 0.00 | 0.00 | 0.00 | 85 | 1014.1 |
| 20260906010233 | 20 | 0 | 0.0 | 0.0 | 0.00 | 0.00 | 0.00 | 85 | 1014.2 |
| 20260906005232 | 20 | 0 | 0.0 | 0.0 | 0.00 | 0.00 | 0.00 | 84 | 1014.1 |
| 20260906004710 | 20 | 0 | 0.0 | 0.0 | 0.00 | 0.00 | 0.00 | 83 | 1014.0 |
| 20260906003232 | 20 | 0 | 0.0 | 0.0 | 0.00 | 0.00 | 0.00 | 82 | 1013.9 |
| 20260906002233 | 20 | 0 | 0.0 | 0.0 | 0.00 | 0.00 | 0.00 | 82 | 1013.9 |
| 20260906001231 | 20 | 0 | 0.0 | 0.0 | 0.00 | 0.00 | 0.00 | 82 | 1013.9 |
| 20260906000229 | 20 | 0 | 0.0 | 0.0 | 0.00 | 0.00 | 0.00 | 81 | 1013.9 |
| 20260905235230 | 20 | 0 | 0.0 | 0.0 | 0.00 | 0.00 | 0.00 | 80 | 1013.9 |
| 20260905234707 | 20 | 0 | 0.0 | 0.0 | 0.00 | 0.00 | 0.00 | 80 | 1014.0 |
| 20260905233226 | 21 | 0 | 0.0 | 0.0 | 0.00 | 0.00 | 0.00 | 79 | 1014.0 |
| 20260905232224 | 21 | 0 | 0.0 | 0.0 | 0.00 | 0.00 | 0.00 | 78 | 1013.9 |
| 20260905231224 | 21 | 0 | 0.0 | 0.0 | 0.00 | 0.00 | 0.00 | 76 | 1014.0 |
| 20260905230707 | 21 | 298 | 0.0 | 0.0 | 0.00 | 0.00 | 0.00 | 76 | 1014.0 |
| 20260905225657 | 21 | 0 | 0.0 | 0.0 | 0.00 | 0.00 | 0.00 | 74 | 1014.1 |
| 20260905224220 | 21 | 0 | 0.0 | 0.0 | 0.00 | 0.00 | 0.00 | 74 | 1014.0 |
| 20260905223216 | 22 | 302 | 0.0 | 0.0 | 0.00 | 0.00 | 0.00 | 72 | 1014.1 |
| 20260905222216 | 22 | 302 | 0.0 | 0.0 | 0.00 | 0.00 | 0.00 | 71 | 1014.0 |
| 20260905221704 | 22 | 302 | 0.0 | 0.0 | 0.00 | 0.00 | 0.00 | 70 | 1013.9 |
| 20260905220216 | 22 | 302 | 0.0 | 0.0 | 0.00 | 0.00 | 0.00 | 69 | 1013.7 |
| 20260905215215 | 22 | 302 | 0.0 | 0.0 | 0.00 | 0.00 | 0.00 | 69 | 1013.8 |
| 20260905214656 | 22 | 302 | 0.0 | 0.0 | 0.00 | 0.00 | 0.00 | 68 | 1013.6 |
| 20260905213214 | 23 | 302 | 0.0 | 0.0 | 0.00 | 0.00 | 0.00 | 68 | 1013.6 |
| 20260905212212 | 23 | 302 | 0.0 | 1.6 | 0.00 | 0.00 | 0.00 | 67 | 1013.6 |
| 20260905211655 | 23 | 297 | 0.0 | 1.6 | 0.00 | 0.00 | 0.00 | 66 | 1013.4 |